ASIASAT 6

Last updated on Aug. 5, 2020, 5:33 a.m. UTC

1 40141U 14052A   20217.81719734 -.00000379  00000-0  00000+0 0  9993
2 40141   0.0171 123.9170 0001019  35.4184 208.6020  1.00268466 21688
UTC
Height (km)
Latitude
Longitude
Inclination
Orbital Period
UTC large
Height (km)
Speed (km/s)
/
Latitude / Longitude
Inclination (degrees)
Orbital Period (minutes)
Azimuth
Elevation
Range (km)
Doppler Factor
iOS Compass Heading
iOS Angle

Next 30 passes for location: Hong Kong

Rise time Rise Azimuth (degrees) Set time Set Azimuth (degrees) Duration Max altitude (degrees)

No matching passes for this satellites